Location: Forst
(46.9333°N, 15.4333°E)
Time: 20:27:46
(UTC+00:00)

CENTAUR R/B - Pass Details

Date: 01 December 2020
Orbit: 750 x 1438 km, 63.4° (Epoch: 11 January)

Event Time Altitude Azimuth Distance (km) Brightness Sun altitude
Rises 16:12:59 0° 155° (SSE) 3,373 5.3 -10.2°
Reaches altitude 10° 16:16:47 10° 128° (SE) 2,563 4.4 -10.8°
Maximum altitude 16:19:22 13° 102° (ESE) 2,440 4.1 -11.3°
Enters shadow 16:20:30 12° 90° (E) 2,522 4.1 -11.4°
